AMX965 MMHO-MMLO

Flight info

Callsign AMX965
Flight time 2h 40m
Altitude 37000
Route VIGLA1B VIGLA UT18 NABAS UQ103 AGU AGU1F
Aircraft B738/M-SDE2E3FGHIRWXY/LB1

Departure

Time 2026-05-05 18:39
Airport General Ignacio L. Pesqueira International Airport (MMHO)

Arrival

Time 2026-05-05 21:19
Airport Guanajuato International Airport (MMLO)
Time Latitude Longitude Altitude Speed Heading
2026-05-05 18:32 29.09117 -111.05156 631 ft 0 kts 150°
2026-05-05 18:33 29.09134 -111.05166 630 ft 4 kts 154°
2026-05-05 18:33 29.09160 -111.05170 630 ft 4 kts 193°
2026-05-05 18:33 29.09182 -111.05164 630 ft 0 kts 220°
2026-05-05 18:34 29.09187 -111.05157 630 ft 0 kts 233°
2026-05-05 18:34 29.09186 -111.05157 630 ft 0 kts 233°
2026-05-05 18:34 29.09175 -111.05158 630 ft 1 kts 117°
2026-05-05 18:35 29.09205 -111.05116 631 ft 15 kts 49°
2026-05-05 18:35 29.09287 -111.04997 633 ft 20 kts 93°
2026-05-05 18:35 29.09336 -111.04857 636 ft 17 kts 74°
2026-05-05 18:35 29.09347 -111.04727 637 ft 15 kts 86°
2026-05-05 18:36 29.09379 -111.04626 637 ft 12 kts 52°
2026-05-05 18:36 29.09435 -111.04557 638 ft 9 kts 49°
2026-05-05 18:36 29.09465 -111.04512 639 ft 5 kts 52°
2026-05-05 18:36 29.09512 -111.04434 641 ft 16 kts 57°
2026-05-05 18:37 29.09570 -111.04333 641 ft 14 kts 56°
2026-05-05 18:37 29.09622 -111.04248 641 ft 12 kts 55°
2026-05-05 18:37 29.09712 -111.04166 642 ft 16 kts 357°
2026-05-05 18:37 29.09802 -111.04201 644 ft 11 kts 332°
2026-05-05 18:38 29.09842 -111.04234 645 ft 1 kts 297°
2026-05-05 18:38 29.09842 -111.04264 645 ft 10 kts 250°
2026-05-05 18:38 29.09807 -111.04336 644 ft 12 kts 231°
2026-05-05 18:38 29.09578 -111.04753 639 ft 109 kts 242°
2026-05-05 18:39 29.09045 -111.05798 630 ft 192 kts 240°
2026-05-05 18:39 29.08346 -111.07146 1707 ft 196 kts 240°
2026-05-05 18:39 29.07646 -111.08416 2980 ft 198 kts 238°
2026-05-05 18:39 29.06874 -111.09731 3864 ft 219 kts 236°
2026-05-05 18:40 29.05965 -111.10985 5071 ft 174 kts 220°
2026-05-05 18:40 29.05113 -111.11832 4797 ft 177 kts 223°
2026-05-05 18:40 29.04130 -111.12753 4402 ft 180 kts 223°
2026-05-05 18:40 29.03536 -111.13909 4272 ft 166 kts 262°
2026-05-05 18:41 29.03438 -111.15144 4327 ft 143 kts 257°
2026-05-05 18:41 29.03159 -111.16147 4276 ft 128 kts 240°
2026-05-05 18:41 29.02421 -111.16973 4616 ft 153 kts 215°
2026-05-05 18:41 29.01720 -111.17417 5901 ft 102 kts 217°
2026-05-05 18:42 29.01167 -111.18093 5895 ft 149 kts 240°
2026-05-05 18:42 29.00838 -111.19237 6394 ft 160 kts 258°
2026-05-05 18:42 29.00599 -111.20603 6642 ft 196 kts 252°
2026-05-05 18:42 28.99903 -111.22120 6786 ft 236 kts 225°
2026-05-05 18:43 28.98403 -111.23010 6974 ft 256 kts 191°
2026-05-05 18:43 28.96623 -111.22726 7141 ft 272 kts 159°
2026-05-05 18:43 28.95092 -111.21349 7322 ft 282 kts 137°
2026-05-05 18:43 28.93885 -111.19595 7480 ft 285 kts 130°
2026-05-05 18:44 28.92801 -111.17674 7838 ft 286 kts 126°
2026-05-05 18:44 28.91804 -111.15677 8280 ft 294 kts 124°
2026-05-05 18:44 28.90917 -111.13570 8705 ft 299 kts 117°
2026-05-05 18:44 28.90254 -111.11281 9143 ft 307 kts 110°
2026-05-05 18:45 28.89825 -111.08865 9581 ft 314 kts 103°
2026-05-05 18:45 28.89600 -111.06405 10011 ft 318 kts 98°
2026-05-05 18:45 28.89574 -111.03873 10448 ft 325 kts 91°
2026-05-05 18:45 28.89839 -111.01291 10882 ft 331 kts 82°
2026-05-05 18:46 28.90399 -110.98727 11320 ft 336 kts 74°
2026-05-05 18:46 28.91179 -110.96217 11756 ft 340 kts 68°
2026-05-05 18:46 28.92220 -110.93762 12194 ft 344 kts 59°
2026-05-05 18:46 28.93556 -110.91501 12631 ft 345 kts 51°
2026-05-05 18:47 28.95103 -110.89414 13067 ft 346 kts 44°
2026-05-05 18:47 28.96849 -110.87472 13505 ft 349 kts 37°
2026-05-05 18:47 28.98785 -110.85870 13928 ft 347 kts 27°
2026-05-05 18:47 29.00928 -110.84583 14369 ft 348 kts 18°
2026-05-05 18:48 29.03180 -110.83534 14810 ft 346 kts 13°
2026-05-05 18:48 29.05474 -110.82746 15236 ft 343 kts
2026-05-05 18:48 29.07825 -110.82365 15672 ft 341 kts 355°
2026-05-05 18:48 29.10180 -110.82345 16110 ft 335 kts 348°
2026-05-05 18:49 29.12495 -110.82563 16549 ft 332 kts 343°
2026-05-05 18:49 29.14732 -110.83037 16978 ft 328 kts 335°
2026-05-05 18:49 29.16878 -110.83859 17417 ft 320 kts 327°
2026-05-05 18:49 29.18869 -110.84953 17859 ft 315 kts 321°
2026-05-05 18:50 29.20757 -110.86230 18301 ft 317 kts 316°
2026-05-05 18:50 29.22318 -110.87875 18718 ft 297 kts 293°
2026-05-05 18:50 29.22955 -110.89999 19171 ft 278 kts 268°
2026-05-05 18:50 29.22809 -110.92195 19623 ft 273 kts 253°
2026-05-05 18:51 29.22178 -110.94206 20051 ft 271 kts 243°
2026-05-05 18:51 29.21173 -110.96026 20484 ft 270 kts 233°
2026-05-05 18:51 29.19926 -110.97618 20907 ft 274 kts 225°
2026-05-05 18:51 29.18332 -110.98881 21340 ft 281 kts 213°
2026-05-05 18:52 29.16463 -110.99639 21771 ft 294 kts 200°
2026-05-05 18:52 29.14398 -110.99851 21929 ft 313 kts 187°
2026-05-05 18:52 29.12187 -110.99244 21509 ft 344 kts 166°
2026-05-05 18:52 29.10155 -110.97648 21101 ft 364 kts 147°
2026-05-05 18:53 29.08433 -110.95481 20758 ft 372 kts 140°
2026-05-05 18:53 29.06772 -110.93182 20478 ft 382 kts 140°
2026-05-05 18:53 29.04968 -110.90827 20639 ft 401 kts 142°
2026-05-05 18:53 29.03032 -110.88487 21003 ft 413 kts 143°
2026-05-05 18:54 29.00953 -110.86113 21303 ft 428 kts 145°
2026-05-05 18:54 28.98822 -110.83760 22102 ft 428 kts 146°
2026-05-05 18:54 28.96659 -110.81414 22791 ft 432 kts 147°
2026-05-05 18:54 28.94463 -110.79054 23341 ft 439 kts 147°
2026-05-05 18:55 28.92259 -110.76695 24195 ft 437 kts 147°
2026-05-05 18:55 28.90003 -110.74290 24684 ft 445 kts 148°
2026-05-05 18:55 28.87761 -110.71892 25579 ft 442 kts 148°
2026-05-05 18:55 28.85508 -110.69486 26269 ft 444 kts 148°
2026-05-05 18:56 28.83301 -110.67116 27383 ft 434 kts 149°
2026-05-05 18:56 28.81143 -110.64795 28261 ft 428 kts 149°
2026-05-05 18:56 28.79008 -110.62508 29097 ft 423 kts 150°
2026-05-05 18:56 28.76834 -110.60194 29624 ft 426 kts 150°
2026-05-05 18:57 28.74665 -110.57905 30063 ft 431 kts 150°
2026-05-05 18:57 28.72448 -110.55577 30549 ft 435 kts 151°
2026-05-05 18:57 28.70237 -110.53244 31052 ft 438 kts 150°
2026-05-05 18:57 28.68011 -110.50880 31698 ft 437 kts 151°
2026-05-05 18:58 28.65816 -110.48545 32384 ft 433 kts 151°
2026-05-05 18:58 28.63593 -110.46188 32994 ft 432 kts 152°
2026-05-05 18:58 28.61417 -110.43878 33792 ft 428 kts 151°
2026-05-05 18:58 28.59289 -110.41614 34588 ft 423 kts 152°
2026-05-05 18:59 28.57155 -110.39343 35443 ft 416 kts 152°
2026-05-05 18:59 28.55043 -110.37103 35887 ft 417 kts 152°
2026-05-05 18:59 28.52899 -110.34847 36349 ft 418 kts 153°
2026-05-05 18:59 28.50778 -110.32612 36934 ft 415 kts 152°
2026-05-05 19:00 28.46421 -110.28039 36995 ft 425 kts 152°
2026-05-05 19:00 28.41983 -110.23402 36999 ft 441 kts 152°
2026-05-05 19:01 28.37342 -110.18552 36995 ft 457 kts 151°
2026-05-05 19:01 28.32603 -110.13586 36995 ft 469 kts 150°
2026-05-05 19:02 28.27854 -110.08562 36992 ft 461 kts 150°
2026-05-05 19:02 28.23118 -110.03568 36984 ft 465 kts 150°
2026-05-05 19:03 28.18423 -109.98640 36968 ft 461 kts 150°
2026-05-05 19:03 28.13663 -109.93546 36968 ft 468 kts 148°
2026-05-05 19:04 28.09108 -109.88216 36965 ft 471 kts 146°
2026-05-05 19:04 28.04633 -109.82843 36961 ft 470 kts 146°
2026-05-05 19:05 28.00107 -109.77472 36954 ft 471 kts 146°
2026-05-05 19:05 27.95590 -109.72160 36958 ft 469 kts 146°
2026-05-05 19:06 27.91031 -109.66843 36970 ft 474 kts 146°
2026-05-05 19:06 27.86431 -109.61482 36994 ft 472 kts 146°
2026-05-05 19:07 27.81875 -109.56174 37008 ft 469 kts 146°
2026-05-05 19:07 27.77319 -109.50885 37018 ft 472 kts 146°
2026-05-05 19:08 27.72744 -109.45579 37032 ft 472 kts 146°
2026-05-05 19:08 27.68159 -109.40263 37018 ft 472 kts 146°
2026-05-05 19:09 27.63567 -109.34951 37002 ft 473 kts 146°
2026-05-05 19:09 27.58989 -109.29653 36996 ft 472 kts 146°
2026-05-05 19:10 27.54360 -109.24344 36987 ft 472 kts 146°
2026-05-05 19:10 27.49738 -109.19085 37008 ft 472 kts 146°
2026-05-05 19:11 27.45112 -109.13832 37025 ft 475 kts 146°
2026-05-05 19:11 27.40473 -109.08568 37031 ft 473 kts 146°
2026-05-05 19:12 27.35850 -109.03318 37028 ft 471 kts 146°
2026-05-05 19:12 27.31209 -108.98062 37008 ft 474 kts 146°
2026-05-05 19:13 27.26604 -108.92847 36999 ft 472 kts 146°
2026-05-05 19:13 27.21953 -108.87589 37009 ft 471 kts 146°
2026-05-05 19:14 27.17343 -108.82387 37024 ft 474 kts 145°
2026-05-05 19:14 27.12701 -108.77151 37032 ft 473 kts 146°
2026-05-05 19:15 27.08044 -108.71902 37022 ft 474 kts 145°
2026-05-05 19:15 27.03411 -108.66691 37022 ft 474 kts 146°
2026-05-05 19:16 26.98740 -108.61446 37009 ft 474 kts 145°
2026-05-05 19:16 26.94085 -108.56219 37003 ft 473 kts 145°
2026-05-05 19:17 26.89431 -108.51005 37000 ft 475 kts 145°
2026-05-05 19:17 26.84749 -108.45765 36992 ft 476 kts 145°
2026-05-05 19:18 26.80111 -108.40574 36996 ft 474 kts 145°
2026-05-05 19:18 26.75407 -108.35327 37004 ft 475 kts 145°
2026-05-05 19:19 26.70772 -108.30151 37016 ft 474 kts 145°
2026-05-05 19:19 26.66081 -108.24929 37040 ft 476 kts 145°
2026-05-05 19:20 26.61421 -108.19743 37068 ft 475 kts 145°
2026-05-05 19:20 26.56766 -108.14481 37100 ft 478 kts 143°
2026-05-05 19:21 26.52313 -108.08882 37107 ft 484 kts 140°
2026-05-05 19:21 26.47962 -108.03179 37115 ft 482 kts 140°
2026-05-05 19:22 26.43614 -107.97521 37122 ft 479 kts 140°
2026-05-05 19:22 26.39258 -107.91936 37139 ft 480 kts 140°
2026-05-05 19:23 26.34856 -107.86336 37133 ft 482 kts 140°
2026-05-05 19:23 26.30442 -107.80740 37128 ft 481 kts 140°
2026-05-05 19:24 26.26004 -107.75118 37102 ft 482 kts 140°
2026-05-05 19:24 26.21592 -107.69539 37119 ft 481 kts 140°
2026-05-05 19:25 26.17188 -107.63963 37149 ft 480 kts 140°
2026-05-05 19:25 26.12755 -107.58369 37178 ft 482 kts 140°
2026-05-05 19:26 26.08340 -107.52805 37167 ft 483 kts 139°
2026-05-05 19:26 26.03900 -107.47210 37178 ft 480 kts 139°
2026-05-05 19:27 25.99492 -107.41679 37159 ft 481 kts 139°
2026-05-05 19:27 25.95046 -107.36098 37157 ft 483 kts 139°
2026-05-05 19:28 25.90634 -107.30553 37189 ft 479 kts 139°
2026-05-05 19:28 25.86205 -107.25005 37193 ft 480 kts 139°
2026-05-05 19:29 25.81749 -107.19440 37214 ft 483 kts 139°
2026-05-05 19:29 25.77324 -107.13908 37241 ft 477 kts 139°
2026-05-05 19:30 25.72910 -107.08387 37271 ft 482 kts 139°
2026-05-05 19:30 25.68445 -107.02820 37293 ft 482 kts 139°
2026-05-05 19:31 25.64032 -106.97310 37331 ft 476 kts 139°
2026-05-05 19:31 25.59627 -106.91834 37331 ft 480 kts 139°
2026-05-05 19:32 25.55179 -106.86309 37351 ft 481 kts 139°
2026-05-05 19:32 25.50731 -106.80785 37383 ft 480 kts 139°
2026-05-05 19:33 25.46302 -106.75295 37387 ft 478 kts 139°
2026-05-05 19:33 25.41870 -106.69811 37369 ft 479 kts 139°
2026-05-05 19:34 25.37425 -106.64322 37367 ft 479 kts 139°
2026-05-05 19:35 25.30777 -106.56110 37365 ft 477 kts 138°
2026-05-05 19:35 25.26335 -106.50630 37369 ft 480 kts 138°
2026-05-05 19:36 25.21914 -106.45186 37381 ft 476 kts 138°
2026-05-05 19:36 25.17497 -106.39761 37399 ft 479 kts 137°
2026-05-05 19:37 25.13018 -106.34283 37405 ft 479 kts 138°
2026-05-05 19:37 25.08572 -106.28823 37418 ft 478 kts 138°
2026-05-05 19:38 25.04126 -106.23367 37451 ft 478 kts 138°
2026-05-05 19:38 24.99708 -106.17946 37461 ft 474 kts 138°
2026-05-05 19:39 24.95278 -106.12536 37456 ft 479 kts 138°
2026-05-05 19:39 24.90802 -106.07092 37449 ft 477 kts 138°
2026-05-05 19:40 24.86369 -106.01690 37432 ft 477 kts 138°
2026-05-05 19:40 24.81934 -105.96277 37434 ft 476 kts 137°
2026-05-05 19:41 24.77481 -105.90849 37432 ft 479 kts 137°
2026-05-05 19:41 24.73015 -105.85426 37415 ft 479 kts 137°
2026-05-05 19:42 24.68557 -105.80028 37433 ft 478 kts 137°
2026-05-05 19:42 24.64061 -105.74577 37441 ft 479 kts 137°
2026-05-05 19:43 24.59621 -105.69193 37442 ft 478 kts 137°
2026-05-05 19:43 24.55138 -105.63771 37442 ft 481 kts 137°
2026-05-05 19:44 24.50642 -105.58336 37451 ft 478 kts 137°
2026-05-05 19:44 24.46185 -105.52958 37455 ft 479 kts 137°
2026-05-05 19:45 24.41678 -105.47526 37451 ft 480 kts 137°
2026-05-05 19:45 24.37211 -105.42139 37451 ft 479 kts 137°
2026-05-05 19:46 24.32704 -105.36719 37452 ft 480 kts 137°
2026-05-05 19:46 24.28196 -105.31310 37460 ft 479 kts 137°
2026-05-05 19:47 24.23724 -105.25936 37479 ft 479 kts 137°
2026-05-05 19:47 24.19210 -105.20526 37472 ft 480 kts 137°
2026-05-05 19:48 24.14708 -105.15139 37479 ft 480 kts 137°
2026-05-05 19:48 24.10235 -105.09791 37496 ft 480 kts 137°
2026-05-05 19:49 24.05717 -105.04399 37502 ft 479 kts 137°
2026-05-05 19:49 24.01217 -104.99032 37504 ft 478 kts 137°
2026-05-05 19:50 23.96748 -104.93707 37493 ft 478 kts 137°
2026-05-05 19:50 23.92242 -104.88341 37473 ft 479 kts 137°
2026-05-05 19:51 23.87754 -104.83000 37451 ft 477 kts 137°
2026-05-05 19:51 23.83234 -104.77635 37443 ft 478 kts 137°
2026-05-05 19:52 23.78735 -104.72297 37445 ft 477 kts 136°
2026-05-05 19:52 23.74250 -104.66981 37433 ft 477 kts 136°
2026-05-05 19:53 23.69783 -104.61693 37426 ft 476 kts 137°
2026-05-05 19:53 23.65289 -104.56383 37415 ft 477 kts 137°
2026-05-05 19:54 23.60783 -104.51060 37395 ft 475 kts 136°
2026-05-05 19:54 23.56304 -104.45778 37389 ft 477 kts 136°
2026-05-05 19:55 23.51790 -104.40457 37398 ft 477 kts 136°
2026-05-05 19:55 23.47322 -104.35191 37421 ft 476 kts 136°
2026-05-05 19:56 23.42788 -104.29858 37437 ft 476 kts 137°
2026-05-05 19:56 23.38309 -104.24594 37450 ft 474 kts 137°
2026-05-05 19:57 23.33831 -104.19338 37449 ft 474 kts 137°
2026-05-05 19:57 23.29335 -104.14071 37449 ft 474 kts 136°
2026-05-05 19:58 23.24850 -104.08823 37458 ft 474 kts 136°
2026-05-05 19:58 23.20386 -104.03605 37459 ft 474 kts 136°
2026-05-05 19:59 23.15886 -103.98349 37438 ft 475 kts 136°
2026-05-05 19:59 23.11378 -103.93088 37425 ft 475 kts 136°
2026-05-05 20:00 23.06902 -103.87868 37420 ft 473 kts 136°
2026-05-05 20:00 23.02432 -103.82659 37423 ft 474 kts 136°
2026-05-05 20:01 22.97940 -103.77422 37434 ft 472 kts 136°
2026-05-05 20:01 22.93471 -103.72218 37451 ft 472 kts 136°
2026-05-05 20:02 22.89001 -103.67023 37443 ft 474 kts 136°
2026-05-05 20:02 22.84523 -103.61822 37441 ft 473 kts 136°
2026-05-05 20:03 22.80028 -103.56609 37426 ft 473 kts 136°
2026-05-05 20:03 22.75524 -103.51390 37421 ft 473 kts 135°
2026-05-05 20:04 22.71051 -103.46207 37434 ft 472 kts 135°
2026-05-05 20:04 22.66551 -103.41000 37443 ft 472 kts 136°
2026-05-05 20:05 22.62092 -103.35847 37452 ft 472 kts 135°
2026-05-05 20:05 22.57602 -103.30662 37457 ft 471 kts 136°
2026-05-05 20:06 22.53120 -103.25497 37459 ft 471 kts 136°
2026-05-05 20:06 22.48642 -103.20345 37449 ft 470 kts 136°
2026-05-05 20:07 22.44147 -103.15173 37435 ft 471 kts 136°
2026-05-05 20:07 22.39668 -103.10023 37427 ft 471 kts 136°
2026-05-05 20:08 22.35194 -103.04884 37423 ft 469 kts 136°
2026-05-05 20:08 22.30725 -102.99758 37418 ft 469 kts 135°
2026-05-05 20:09 22.26261 -102.94642 37430 ft 469 kts 136°
2026-05-05 20:09 22.21775 -102.89510 37449 ft 468 kts 135°
2026-05-05 20:10 22.17336 -102.84440 37456 ft 468 kts 135°
2026-05-05 20:10 22.12852 -102.79325 37465 ft 468 kts 135°
2026-05-05 20:11 22.08372 -102.74218 37468 ft 468 kts 135°
2026-05-05 20:11 22.03918 -102.69150 37461 ft 467 kts 135°
2026-05-05 20:12 21.99457 -102.64075 37453 ft 467 kts 135°
2026-05-05 20:12 21.94992 -102.58999 37449 ft 468 kts 135°
2026-05-05 20:13 21.90513 -102.53911 37425 ft 467 kts 135°
2026-05-05 20:13 21.86043 -102.48840 37383 ft 467 kts 135°
2026-05-05 20:14 21.81568 -102.43767 37346 ft 466 kts 135°
2026-05-05 20:14 21.77118 -102.38729 37312 ft 466 kts 135°
2026-05-05 20:15 21.72657 -102.33681 37293 ft 467 kts 135°
2026-05-05 20:15 21.68002 -102.28797 37287 ft 465 kts 141°
2026-05-05 20:16 21.63073 -102.24320 37302 ft 465 kts 142°
2026-05-05 20:16 21.58084 -102.19916 37323 ft 465 kts 142°
2026-05-05 20:17 21.53094 -102.15474 37336 ft 466 kts 142°
2026-05-05 20:17 21.48121 -102.11001 37351 ft 466 kts 142°
2026-05-05 20:18 21.43195 -102.06542 37374 ft 464 kts 141°
2026-05-05 20:18 21.38243 -102.02057 37383 ft 464 kts 141°
2026-05-05 20:19 21.33328 -101.97607 37379 ft 464 kts 141°
2026-05-05 20:19 21.28380 -101.93130 37383 ft 464 kts 141°
2026-05-05 20:20 21.23446 -101.88672 37387 ft 464 kts 141°
2026-05-05 20:20 21.18500 -101.84207 37392 ft 465 kts 141°
2026-05-05 20:21 21.13551 -101.79739 37369 ft 465 kts 141°
2026-05-05 20:21 21.08617 -101.75289 37362 ft 464 kts 141°
2026-05-05 20:22 21.03677 -101.70822 37344 ft 465 kts 140°
2026-05-05 20:22 20.99023 -101.66054 37324 ft 466 kts 135°
2026-05-05 20:23 20.94552 -101.61040 37315 ft 465 kts 134°
2026-05-05 20:23 20.90080 -101.55997 37298 ft 465 kts 135°
2026-05-05 20:24 20.85596 -101.51017 37284 ft 465 kts 135°
2026-05-05 20:24 20.81090 -101.46060 37307 ft 466 kts 135°
2026-05-05 20:25 20.76660 -101.41053 37318 ft 466 kts 127°
2026-05-05 20:25 20.75158 -101.38004 37334 ft 469 kts 108°
2026-05-05 20:25 20.74699 -101.34579 37348 ft 472 kts 88°
2026-05-05 20:25 20.75366 -101.31144 37353 ft 474 kts 68°
2026-05-05 20:26 20.77072 -101.28169 37355 ft 475 kts 48°
2026-05-05 20:26 20.79645 -101.25957 37354 ft 473 kts 27°
2026-05-05 20:26 20.82720 -101.24811 37359 ft 470 kts
2026-05-05 20:26 20.85948 -101.24837 37368 ft 466 kts 347°
2026-05-05 20:27 20.88989 -101.26049 37373 ft 462 kts 327°
2026-05-05 20:27 20.91377 -101.28233 37367 ft 459 kts 307°
2026-05-05 20:27 20.93023 -101.31162 37351 ft 457 kts 293°
2026-05-05 20:28 20.95287 -101.37466 37319 ft 456 kts 290°
2026-05-05 20:28 20.97865 -101.43662 37280 ft 457 kts 297°
2026-05-05 20:29 21.01294 -101.49358 37252 ft 457 kts 305°
2026-05-05 20:29 21.04608 -101.55111 37263 ft 453 kts 284°
2026-05-05 20:29 21.04923 -101.58410 37312 ft 450 kts 264°
2026-05-05 20:30 21.04135 -101.61607 37323 ft 450 kts 244°
2026-05-05 20:30 21.02312 -101.64334 37312 ft 451 kts 224°
2026-05-05 20:30 20.99700 -101.66190 37305 ft 453 kts 203°
2026-05-05 20:30 20.96656 -101.66945 37315 ft 456 kts 183°
2026-05-05 20:31 20.93505 -101.66537 37330 ft 460 kts 165°
2026-05-05 20:31 20.90522 -101.65186 37316 ft 464 kts 152°
2026-05-05 20:31 20.87846 -101.63294 37320 ft 464 kts 143°
2026-05-05 20:32 20.83271 -101.58422 37318 ft 465 kts 129°
2026-05-05 20:32 20.79823 -101.52599 37312 ft 467 kts 121°
2026-05-05 20:33 20.76154 -101.46894 37321 ft 466 kts 127°
2026-05-05 20:33 20.72751 -101.41029 37337 ft 468 kts 115°
2026-05-05 20:34 20.69692 -101.34885 37337 ft 466 kts 125°
2026-05-05 20:34 20.65696 -101.29494 37337 ft 464 kts 136°
2026-05-05 20:34 20.63129 -101.27445 37335 ft 460 kts 154°
2026-05-05 20:35 20.60131 -101.26366 37350 ft 458 kts 170°
2026-05-05 20:35 20.53777 -101.25754 37329 ft 457 kts 179°
2026-05-05 20:36 20.47413 -101.25610 37328 ft 457 kts 180°
2026-05-05 20:36 20.41059 -101.25433 37328 ft 457 kts 179°
2026-05-05 20:37 20.34664 -101.25159 37328 ft 457 kts 178°
2026-05-05 20:37 20.28357 -101.25513 37327 ft 456 kts 194°
2026-05-05 20:37 20.25358 -101.26666 37328 ft 455 kts 207°
2026-05-05 20:38 20.22726 -101.28506 37334 ft 456 kts 219°
2026-05-05 20:38 20.18576 -101.33564 37329 ft 455 kts 241°
2026-05-05 20:38 20.17400 -101.36666 37339 ft 456 kts 255°
2026-05-05 20:39 20.16882 -101.39985 37345 ft 458 kts 265°
2026-05-05 20:39 20.17513 -101.46710 37337 ft 460 kts 289°
2026-05-05 20:39 20.18916 -101.49745 37343 ft 462 kts 302°
2026-05-05 20:40 20.20871 -101.52433 37339 ft 464 kts 311°
2026-05-05 20:40 20.23226 -101.54825 37322 ft 465 kts 322°
2026-05-05 20:40 20.26006 -101.56558 37323 ft 466 kts 337°
2026-05-05 20:40 20.29130 -101.57484 37327 ft 467 kts 351°
2026-05-05 20:41 20.32366 -101.57686 37335 ft 469 kts
2026-05-05 20:41 20.38756 -101.56328 37333 ft 471 kts 26°
2026-05-05 20:41 20.41497 -101.54451 37332 ft 472 kts 40°
2026-05-05 20:42 20.43772 -101.51951 37331 ft 473 kts 51°
2026-05-05 20:42 20.47012 -101.45888 37326 ft 471 kts 72°
2026-05-05 20:43 20.48428 -101.39121 37331 ft 471 kts 80°
2026-05-05 20:43 20.50621 -101.32582 37330 ft 471 kts 54°
2026-05-05 20:43 20.52906 -101.30103 37340 ft 472 kts 36°
2026-05-05 20:44 20.55764 -101.28418 37346 ft 472 kts 21°
2026-05-05 20:44 20.58907 -101.27470 37346 ft 470 kts
2026-05-05 20:44 20.62200 -101.27019 37345 ft 470 kts
2026-05-05 20:44 20.65438 -101.26979 37338 ft 468 kts 352°
2026-05-05 20:45 20.71370 -101.29522 37361 ft 462 kts 321°
2026-05-05 20:45 20.73716 -101.31840 37358 ft 461 kts 310°
2026-05-05 20:45 20.75724 -101.34522 37348 ft 459 kts 303°
2026-05-05 20:46 20.77292 -101.37472 37335 ft 456 kts 290°
2026-05-05 20:46 20.78090 -101.40713 37336 ft 455 kts 276°
2026-05-05 20:46 20.78124 -101.44087 37325 ft 453 kts 263°
2026-05-05 20:46 20.77599 -101.47381 37320 ft 453 kts 256°
2026-05-05 20:47 20.76649 -101.50576 37303 ft 452 kts 245°
2026-05-05 20:47 20.75024 -101.53419 37306 ft 451 kts 231°
2026-05-05 20:47 20.72787 -101.55750 37335 ft 452 kts 218°
2026-05-05 20:47 20.70147 -101.57611 37341 ft 453 kts 210°
2026-05-05 20:48 20.67294 -101.59038 37341 ft 454 kts 199°
2026-05-05 20:48 20.64213 -101.59721 37355 ft 456 kts 185°
2026-05-05 20:48 20.57817 -101.59433 37358 ft 458 kts 177°
2026-05-05 20:49 20.51449 -101.58991 37356 ft 458 kts 178°
2026-05-05 20:49 20.45107 -101.58498 37349 ft 458 kts 173°
2026-05-05 20:50 20.41999 -101.57719 37341 ft 460 kts 161°
2026-05-05 20:50 20.39148 -101.56168 37344 ft 462 kts 146°
2026-05-05 20:50 20.36728 -101.53934 37336 ft 464 kts 134°
2026-05-05 20:50 20.34708 -101.51223 37330 ft 465 kts 125°
2026-05-05 20:51 20.33146 -101.48232 37317 ft 466 kts 113°
2026-05-05 20:51 20.32317 -101.44935 37324 ft 467 kts 98°
2026-05-05 20:51 20.32268 -101.41448 37328 ft 468 kts 85°
2026-05-05 20:51 20.32798 -101.38028 37324 ft 470 kts 77°
2026-05-05 20:52 20.33843 -101.34768 37319 ft 471 kts 64°
2026-05-05 20:52 20.35651 -101.31852 37329 ft 471 kts 49°
2026-05-05 20:52 20.38065 -101.29514 37332 ft 472 kts 36°
2026-05-05 20:52 20.40836 -101.27670 37333 ft 473 kts 27°
2026-05-05 20:53 20.43908 -101.26324 37327 ft 472 kts 14°
2026-05-05 20:53 20.47136 -101.25861 37335 ft 469 kts 359°
2026-05-05 20:53 20.53641 -101.26248 37329 ft 470 kts 355°
2026-05-05 20:54 20.60186 -101.26711 37335 ft 469 kts 355°
2026-05-05 20:54 20.66643 -101.27380 37337 ft 467 kts 347°
2026-05-05 20:55 20.69728 -101.28443 37345 ft 465 kts 333°
2026-05-05 20:55 20.72503 -101.30254 37345 ft 463 kts 320°
2026-05-05 20:55 20.76864 -101.35239 37331 ft 458 kts 302°
2026-05-05 20:56 20.78324 -101.38229 37328 ft 456 kts 289°
2026-05-05 20:56 20.79092 -101.41480 37317 ft 454 kts 277°
2026-05-05 20:56 20.79057 -101.48196 37299 ft 453 kts 260°
2026-05-05 20:57 20.78205 -101.51372 37298 ft 451 kts 246°
2026-05-05 20:57 20.76657 -101.54320 37304 ft 451 kts 234°
2026-05-05 20:57 20.72395 -101.59160 37323 ft 452 kts 217°
2026-05-05 20:58 20.69678 -101.60864 37335 ft 454 kts 204°
2026-05-05 20:58 20.66672 -101.61866 37344 ft 455 kts 192°
2026-05-05 20:58 20.60330 -101.62362 37352 ft 457 kts 180°
2026-05-05 20:59 20.53991 -101.62035 37352 ft 458 kts 177°
2026-05-05 20:59 20.47614 -101.61563 37346 ft 457 kts 177°
2026-05-05 21:00 20.41326 -101.60564 37339 ft 459 kts 164°
2026-05-05 21:00 20.38376 -101.59297 37332 ft 460 kts 153°
2026-05-05 21:00 20.35709 -101.57400 37327 ft 462 kts 140°
2026-05-05 21:01 20.33448 -101.54903 37322 ft 464 kts 129°
2026-05-05 21:01 20.31620 -101.52079 37315 ft 465 kts 121°
2026-05-05 21:01 20.30300 -101.48937 37307 ft 466 kts 108°
2026-05-05 21:01 20.29622 -101.45640 37178 ft 459 kts 99°
2026-05-05 21:02 20.29317 -101.42276 36573 ft 456 kts 93°
2026-05-05 21:02 20.29350 -101.38886 35593 ft 461 kts 87°
2026-05-05 21:02 20.29726 -101.35519 34598 ft 466 kts 81°
2026-05-05 21:02 20.30456 -101.32127 33590 ft 470 kts 75°
2026-05-05 21:03 20.31516 -101.28847 32627 ft 474 kts 69°
2026-05-05 21:03 20.32904 -101.25680 31727 ft 477 kts 63°
2026-05-05 21:03 20.34614 -101.22646 30825 ft 480 kts 57°
2026-05-05 21:03 20.36613 -101.19820 29926 ft 482 kts 51°
2026-05-05 21:04 20.38941 -101.17303 29005 ft 478 kts 42°
2026-05-05 21:04 20.41589 -101.15192 27822 ft 476 kts 33°
2026-05-05 21:04 20.44491 -101.13556 26529 ft 476 kts 24°
2026-05-05 21:04 20.47630 -101.12415 25226 ft 475 kts 15°
2026-05-05 21:05 20.50853 -101.11826 23937 ft 472 kts
2026-05-05 21:05 20.54109 -101.11787 22608 ft 469 kts 356°
2026-05-05 21:05 20.57290 -101.12292 21332 ft 466 kts 347°
2026-05-05 21:05 20.60339 -101.13327 20077 ft 461 kts 338°
2026-05-05 21:06 20.63150 -101.14892 18823 ft 455 kts 324°
2026-05-05 21:06 20.65351 -101.17207 17586 ft 447 kts 304°
2026-05-05 21:06 20.66608 -101.20192 16482 ft 433 kts 281°
2026-05-05 21:06 20.66722 -101.23302 15538 ft 417 kts 259°
2026-05-05 21:07 20.65767 -101.26111 14612 ft 403 kts 238°
2026-05-05 21:07 20.63896 -101.28256 13683 ft 392 kts 214°
2026-05-05 21:07 20.63098 -101.28770 13365 ft 389 kts 207°
2026-05-05 21:07 20.61274 -101.29417 12705 ft 383 kts 189°
2026-05-05 21:08 20.58670 -101.29298 11799 ft 377 kts 165°
2026-05-05 21:08 20.56382 -101.28054 10904 ft 372 kts 141°
2026-05-05 21:08 20.54801 -101.25900 10003 ft 369 kts 116°
2026-05-05 21:08 20.54270 -101.23274 9225 ft 362 kts 89°
2026-05-05 21:09 20.54903 -101.20755 8796 ft 345 kts 60°
2026-05-05 21:09 20.56450 -101.18966 8574 ft 323 kts 31°
2026-05-05 21:09 20.58507 -101.18273 8595 ft 301 kts
2026-05-05 21:09 20.60538 -101.18538 8589 ft 288 kts 343°
2026-05-05 21:10 20.62370 -101.19193 8584 ft 263 kts 336°
2026-05-05 21:10 20.63971 -101.19873 8602 ft 233 kts 335°
2026-05-05 21:10 20.65446 -101.20506 8594 ft 227 kts 336°
2026-05-05 21:10 20.66953 -101.21150 8598 ft 236 kts 336°
2026-05-05 21:11 20.68486 -101.21806 8595 ft 233 kts 335°
2026-05-05 21:11 20.69966 -101.22437 8592 ft 228 kts 336°
2026-05-05 21:11 20.71446 -101.23068 8591 ft 226 kts 335°
2026-05-05 21:11 20.72914 -101.23688 8593 ft 225 kts 336°
2026-05-05 21:12 20.74361 -101.24320 8593 ft 224 kts 334°
2026-05-05 21:12 20.75763 -101.24978 8588 ft 211 kts 332°
2026-05-05 21:12 20.76982 -101.25674 8573 ft 187 kts 327°
2026-05-05 21:12 20.78055 -101.26348 8560 ft 174 kts 326°
2026-05-05 21:13 20.79095 -101.27035 8572 ft 175 kts 324°
2026-05-05 21:13 20.80138 -101.27747 8579 ft 179 kts 324°
2026-05-05 21:13 20.81173 -101.28481 8581 ft 178 kts 321°
2026-05-05 21:13 20.82137 -101.29305 8575 ft 176 kts 316°
2026-05-05 21:14 20.83037 -101.30190 8479 ft 176 kts 312°
2026-05-05 21:14 20.83895 -101.31120 8377 ft 174 kts 312°
2026-05-05 21:14 20.84777 -101.32030 8275 ft 174 kts 314°
2026-05-05 21:14 20.85637 -101.32935 8174 ft 173 kts 311°
2026-05-05 21:15 20.86448 -101.33884 8109 ft 172 kts 309°
2026-05-05 21:15 20.87260 -101.34824 8078 ft 173 kts 311°
2026-05-05 21:15 20.88088 -101.35764 8046 ft 173 kts 311°
2026-05-05 21:15 20.88909 -101.36691 8013 ft 173 kts 312°
2026-05-05 21:16 20.89768 -101.37618 7900 ft 175 kts 313°
2026-05-05 21:16 20.90627 -101.38530 7783 ft 173 kts 313°
2026-05-05 21:16 20.91475 -101.39430 7630 ft 173 kts 313°
2026-05-05 21:16 20.92328 -101.40341 7457 ft 172 kts 313°
2026-05-05 21:17 20.93166 -101.41255 7281 ft 172 kts 313°
2026-05-05 21:17 20.94021 -101.42166 6962 ft 175 kts 312°
2026-05-05 21:17 20.94852 -101.43105 6591 ft 173 kts 311°
2026-05-05 21:17 20.95665 -101.44020 6361 ft 164 kts 312°
2026-05-05 21:18 20.96452 -101.44902 6187 ft 167 kts 312°
2026-05-05 21:18 20.97259 -101.45808 6087 ft 166 kts 311°
2026-05-05 21:18 20.98072 -101.46708 5945 ft 169 kts 311°
2026-05-05 21:18 20.98832 -101.47559 5921 ft 133 kts 311°
2026-05-05 21:19 20.99263 -101.48023 5925 ft 51 kts 310°
2026-05-05 21:19 20.99372 -101.48150 5926 ft 0 kts 315°
2026-05-05 21:19 20.99422 -101.48202 5927 ft 36 kts 315°
2026-05-05 21:19 20.99626 -101.48425 5934 ft 40 kts 314°
2026-05-05 21:20 20.99684 -101.48576 5939 ft 6 kts 243°
2026-05-05 21:20 20.99663 -101.48613 5941 ft 23 kts 235°
2026-05-05 21:20 20.99539 -101.48592 5938 ft 19 kts 133°
2026-05-05 21:20 20.99387 -101.48429 5930 ft 47 kts 133°
2026-05-05 21:21 20.99148 -101.48167 5925 ft 48 kts 131°
2026-05-05 21:21 20.98929 -101.47929 5923 ft 37 kts 137°
2026-05-05 21:21 20.98786 -101.47817 5921 ft 17 kts 160°
2026-05-05 21:21 20.98704 -101.47814 5918 ft 7 kts 183°
2026-05-05 21:22 20.98667 -101.47832 5917 ft 2 kts 222°
2026-05-05 21:22 20.98663 -101.47835 5916 ft 0 kts 222°